STARLINK-33650, 63321

Orbit data source: Space-Track

STARLINK-33650, 63321 is a payload satellite owned by SpaceX/Seattle (US) in LEO that was launched on Tue, 18 Mar 2025 UTC via an FALCON 9 launch vehicle from the Air Force Eastern Test Range (AFETR). Payload-class satellites include a variety of spacecraft equipped with specific instruments for various scientific and technological missions. These include communications satellites like Starlink; space stations such as the ISS; scientific satellites like the Hubble; Earth observation satellites from companies like Planet Labs, Umbra, and HawkEye 360; GPS; miniature CubeSats for education and research; and military/defense satellites.

Loading next visibility...
Identifier
63321, 2025-057Q
Orbit
LEO
Country
Flag of USUS
Related business
Manufacturer
SpaceX/Seattle
Mission
Operational Commercial Communications
Bus & Motor
STARLINK V2MO, Unknown motor
Mass
575 kg wet, ~530 kg dry
Launch date (UTC)
2025-03-18 (7 months ago)
Launch vehicle
FALCON 9
Launch site
Air Force Eastern Test Range (AFETR)
Object type
Payload
Rocket body
Debris
Shape & HBR
Box + 2 Pan, 17.7 m
Radar Cross Section
36.964 m², Large (>1 m²)

Expand to show TLE details & history
Last TLE update: 16 hours ago

TLE from 16 hours ago
0 STARLINK-33650
1 63321U 25057Q   25302.67900871  .00034533  00000-0  12575-2 0  9994
2 63321  43.0022  50.5097 0001147 263.3951  96.6770 15.27606724 35706
Epoch: 2025-10-29T16:17Z
TLE epoch observation values (Epoch: 2025-10-29T16:17:46.352Z)
Latitude
-0.00003°
Longitude
127.81784°
Altitude
482.836 km
Speed
7.626 km/s
True Right ascension
03h 22m 02s
True Declination
0° 00' 00"
Sunlit
Object was in full shadow at epoch
Visualization orbit readout
Latitude
Unknown
Longitude
Unknown
Altitude
Unknown
Speed
Unknown
Apparent Right ascension
Unknown
Apparent Declination
Unknown
Sunlit
N/A
Visualization observer readout
Local Sidereal Time
04:09:49
Azimuth
Unknown
Elevation
Unknown
Doppler factor
Unknown
Orbital elements
Apogee altitude
485.701 km
Perigee altitude
484.127 km
Semi-major axis
6,863.051 km
Eccentricity
0.00011
Inclination
43.0022°
RAAN
50.5097°
Arg. of periapsis
263.3951°
True anomaly
96.69005°
Mean anomaly
96.677°
Eccentric anomaly
96.68353°
Mean motion
3.8174 °/min
Orbital period
94.31 mins
BSTAR
0.0012575
Loading maneuver chart data...
Computing Atmospheric mass density...
Loading historical data...
Loading historical data...
Loading historical data...
Loading historical data...
Loading historical data...
Loading historical data...
Loading historical data...

Documentation

Showing up to 5 results
|